Regional Weather Roundup
Issued by NWS

Home | Current Version | Previous Version | Graphics & Text | Print | Product List | Glossary On
Versions: 1 2 3 4 5 6 7 8 9 10 11 12 13 14 15 16 17 18 19 20 21 22 23 24 25 26 27 28 29 30 31 32 33 34 35 36 37 38 39 40 41 42 43 44 45 46 47 48 49 50
000
ASUS44 KMEG 201100
RWRTN
TENNESSEE HOURLY STATE WEATHER ROUNDUP
NATIONAL WEATHER SERVICE MEMPHIS TN
600 AM CDT WED SEP 20 2017

TNZ002-004-019-021-049-052-054-088>092-201200-
WEST TENNESSEE

CITY           SKY/WX    TMP DP  RH WIND       PRES   REMARKS
MEMPHIS INTL   CLEAR     74  71  91 S6        29.94R
NWS MEMPHIS      N/A     73 N/A N/A MISG        N/A
JACKSON        CLEAR     73  71  93 S6        29.96R
DYERSBURG      CLEAR     72  70  93 S5        29.95R
$$

TNZ008-025-027-028-033-062-065-066-201200-
NORTH MIDDLE TENNESSEE

CITY           SKY/WX    TMP DP  RH WIND       PRES   REMARKS
NASHVILLE      PTCLDY    68  65  90 CALM      30.00R
CLARKSVILLE    CLEAR     66  64  93 CALM      29.97R
SMYRNA           N/A    N/A N/A N/A MISG        N/A
CROSSVILLE     CLEAR     61  60  97 W3        30.08R
$$

TNZ061-075-076-078-094-096-097-201200-
SOUTH MIDDLE TENNESSEE

CITY           SKY/WX    TMP DP  RH WIND       PRES   REMARKS
WINCHESTER     CLEAR     63  63 100 CALM        N/A
MCMINNVILLE    CLOUDY    61  61 100 CALM      30.03R VSB 1/2
$$

TNZ017-018-042-046-047-201200-
NORTHEAST TENNESSEE

CITY           SKY/WX    TMP DP  RH WIND       PRES   REMARKS
TRI CITIES     PTCLDY    60  59  96 CALM      30.08R FOG
$$

TNZ012-013-036-069-073-074-201200-
CENTRAL EAST TENNESSEE

CITY           SKY/WX    TMP DP  RH WIND       PRES   REMARKS
KNOXVILLE      FOG       61  60  97 CALM      30.04R VSB 1/4
OAK RIDGE      FOG       62  61  96 CALM      30.05R VSB 1/4
GATLINBURG     CLEAR     57  57 100 CALM      30.05R
$$

TNZ083-085-099-201200-
SOUTHEAST TENNESSEE

CITY           SKY/WX    TMP DP  RH WIND       PRES   REMARKS
CHATTANOOGA    FOG       66  65  96 CALM      30.03R VSB 3/4
$$

SKY/WX REPORTED AS FAIR MEANS FEW OR NO CLOUDS BELOW
12 THOUSAND FEET.




USA.gov is the U.S. government's official web portal to all federal, state and local government web resources and services.